Location: East Village
(40.7293°N, 73.9874°W)
Time: 05:39:23
(UTC+00:00)

Daily predictions for brighter satellites

Satellite Brightness Start Highest point End
(mag) Time Altitude Azimuth Time Altitude Azimuth Time Altitude Azimuth
Cosmos 1340 3.6 00:01:50 10° SSW 00:05:30 50° WNW 00:09:10 10° N
Cosmos 2242 Rocket 3.5 00:01:14 10° N 00:05:48 82° E 00:10:21 10° S
CZ-4 R/B 3.6 00:02:57 10° SSW 00:06:37 29° W 00:10:16 10° NW
Meteor 1-20 Rocket 4.0 00:01:43 10° S 00:07:08 72° E 00:12:40 10° NNE
GPS 2-04 Rocket1 3.8 00:03:21 10° SW 00:07:11 34° S 00:08:20 29° SE
STARLINK-1042 3.8 00:03:17 10° SSW 00:07:18 53° SE 00:08:27 39° E
MOS 1 4.4 00:01:54 10° SE 00:07:20 50° ENE 00:12:47 10° N
Cosmos 2297 Rocket 4.3 00:07:37 10° NE 00:07:45 10° NE 00:07:45 10° NE
Cosmos 1862 Rocket 4.5 00:04:52 10° NNW 00:09:04 50° W 00:13:16 10° SSW
Meteor 1-18 Rocket 4.5 00:03:26 10° N 00:09:10 49° ENE 00:14:46 10° SSE
Cosmos 405 3.7 00:08:43 10° N 00:11:15 35° NE 00:11:15 35° NE
STARLINK-1056 3.6 00:08:12 10° SW 00:12:16 58° SE 00:13:14 45° E
Cosmos 724 4.3 00:07:14 10° NNW 00:13:04 83° WSW 00:18:52 10° SSE
COSMOS 2487 2.8 00:13:19 10° N 00:16:07 45° NNE 00:16:07 45° NNE
STARLINK-1054 3.5 00:13:08 10° SW 00:17:13 64° SE 00:17:59 51° E
Cosmos 1932 4.5 00:11:22 10° NNW 00:17:58 76° ENE 00:22:26 22° SE
BREEZE-M DEB (TANK) 3.6 00:15:22 10° NW 00:18:29 69° NNE 00:21:28 31° ESE
Cosmos 1943 Rocket 4.2 00:14:46 10° WSW 00:19:28 27° NW 00:24:10 10° N
Meteor 1-14 Rocket 4.1 00:15:25 10° S 00:20:50 60° E 00:26:18 10° NNE
STARLINK-1062 3.5 00:18:05 10° SW 00:22:11 71° SE 00:22:47 59° E
Cosmos 1072 Rocket 4.5 00:16:59 10° S 00:23:23 86° E 00:29:44 10° N
HJ-1C 4.3 00:20:33 10° S 00:23:45 49° W 00:26:58 10° NNW
Gbstr 26 Del rocket 2.9 00:20:42 10° SW 00:24:44 85° NW 00:26:07 44° NE
Okean 1-7 2.9 00:21:32 10° N 00:25:51 70° E 00:27:15 41° SSE
Cosmos 1703 Rocket 3.4 00:21:34 10° N 00:26:03 83° E 00:29:48 15° S
CZ-2C R/B 3.3 00:22:08 20° SE 00:26:05 58° ENE 00:31:42 10° N
Cosmos 2227 Rocket 4.3 00:24:34 10° NNE 00:25:38 12° NNE 00:25:38 12° NNE
STARLINK-1053 3.4 00:23:02 10° SW 00:27:10 78° SE 00:27:34 69° E
Cosmos 1869 Rocket 3.4 00:27:35 10° S 00:31:58 70° E 00:36:20 10° NNE
STARLINK-1061 3.4 00:27:59 10° SW 00:32:07 85° SE 00:32:20 79° ENE
Cosmos 1513 Rocket 4.4 00:29:22 10° S 00:35:26 83° W 00:41:38 10° N
STARLINK-1067 3.5 00:32:58 10° SW 00:37:06 88° NNW 00:37:07 87° NNW
Cosmos 1602 3.7 00:33:14 10° S 00:37:08 83° W 00:37:20 78° NNW
SJ 16-02 1.8 00:32:53 10° N 00:36:18 45° NNE 00:36:18 45° NNE
SJ-6B 4.2 00:39:21 27° N 00:39:21 27° N 00:41:12 10° N
Cosmos 44 Rocket 4.1 00:33:10 10° NNW 00:36:43 34° NNE 00:36:43 34° NNE
SPOT 3 Rocket 3.7 00:38:20 51° ENE 00:38:20 51° ENE 00:43:08 10° N
Cosmos 468 Rocket 3.9 00:33:44 10° SSW 00:39:00 89° WNW 00:44:21 10° NNE
STARLINK-1058 3.6 00:37:54 10° SW 00:41:52 78° WNW 00:41:52 78° WNW
Meteor 1-19 Rocket 4.1 00:40:19 10° N 00:46:08 79° E 00:48:02 44° SSE
STARLINK-29 4.5 00:43:25 10° WNW 00:45:47 38° W 00:45:47 38° W
STARLINK-1043 3.8 00:42:56 10° WSW 00:46:41 67° W 00:46:41 67° W
Meteor 2-4 Rocket 4.0 00:43:32 10° N 00:48:37 51° NE 00:48:37 51° NE
STARLINK-1065 4.1 00:47:51 10° WSW 00:51:23 58° W 00:51:23 58° W
Cosmos 1898 Rocket 3.3 00:47:44 10° NNW 00:52:56 88° ENE 00:53:10 82° SE
Hubble Space Telescope 3.2 00:50:47 10° SW 00:52:03 13° SSW 00:52:03 13° SSW
USA 267 3.5 00:55:17 45° SSE 00:55:17 45° SSE 01:00:50 10° SSW
STARLINK-1063 4.4 00:52:54 10° WSW 00:56:13 50° W 00:56:13 50° W
Cosmos 1763 Rocket 3.8 01:00:41 10° SSW 01:05:50 63° WNW 01:08:16 31° N
Nadezhda 4 Rocket 4.2 01:08:56 10° NNW 01:15:12 69° W 01:17:51 36° SSW
ARGOS 4.3 01:25:13 29° SW 01:27:19 40° W 01:32:26 10° NNW
USA 234 4.3 01:28:32 32° NNE 01:28:32 32° NNE 01:33:41 10° NW
Lacrosse 5 rocket 4.3 01:31:24 10° NNW 01:31:54 12° NNW 01:31:54 12° NNW
H-2A R/B 3.9 01:30:57 13° SSW 01:34:53 29° W 01:39:35 10° NW
Timation 2 Rocket 4.5 01:29:31 10° NNW 01:36:17 61° WSW 01:36:43 60° SW
Lacrosse 5 3.6 01:33:05 10° WSW 01:35:36 28° WSW 01:35:36 28° WSW
Cosmos 2297 Rocket 4.2 01:47:56 10° NNW 01:49:34 19° NNW 01:49:34 19° NNW
CENTAUR R/B 4.1 01:57:51 10° NNW 02:02:51 34° N 02:02:51 34° N
Cosmos 2369 Rocket 4.2 08:19:24 21° ESE 08:19:24 21° ESE 08:21:30 10° SE
Cosmos 407 Rocket 4.5 08:51:14 44° NE 08:51:14 44° NE 08:54:54 10° NNE
USA 215 3.8 08:47:36 10° NE 08:53:10 45° NNW 08:53:10 45° NNW
CZ-2C R/B 2.8 08:59:53 10° NNE 09:04:38 63° ENE 09:04:38 63° ENE
DELTA 2 R/B (1) 3.9 09:06:20 59° SE 09:06:20 59° SE 09:11:14 10° E
Cosmos 1943 Rocket 4.3 09:16:40 13° S 09:16:40 13° S 09:17:09 10° S
BREEZE-M DEB (TANK) 4.5 09:13:46 36° S 09:15:37 45° SSE 09:19:01 10° ENE
Cosmos 1153 Rocket 4.3 09:10:59 10° N 09:17:10 90° WSW 09:23:18 10° S
Cosmos 1190 Rocket 4.0 09:19:32 70° N 09:19:32 70° N 09:24:19 10° NNE
MSX 4.3 09:16:53 10° N 09:21:10 44° NNW 09:21:10 44° NNW
Cosmos 1727 Rocket 3.8 09:24:09 60° SW 09:25:10 71° W 09:31:21 10° N
USA 267 3.1 09:19:02 10° SE 09:25:35 85° SW 09:28:18 39° NW
Cosmos 2173 Rocket 4.4 09:20:14 10° N 09:26:26 62° E 09:32:31 10° SSE
Meteor 1-31 Rocket 3.4 09:23:31 10° NNE 09:26:54 54° ENE 09:26:54 54° ENE
ADEOS 4.0 09:24:12 10° N 09:28:16 47° NNW 09:28:16 47° NNW
Cosmos 2084 4.4 09:32:35 38° N 09:32:35 38° N 09:35:47 10° NNE
NOSS 3-3 (A) 4.2 09:29:16 28° S 09:32:24 63° ESE 09:38:43 10° NE
NOSS 3-3 (C) 4.2 09:29:16 27° S 09:32:30 62° ESE 09:38:49 10° NE
Atlas Centaur 2 4.1 09:31:21 24° SSW 09:34:48 34° SSE 09:42:12 10° ESE
H-2A R/B 2.8 09:32:45 10° NNE 09:37:15 73° ESE 09:40:10 22° S
Cosmos 676 Rocket 3.9 09:35:32 38° SSW 09:37:41 89° ESE 09:43:03 10° NNE
Shenzhou-11 Module 4.1 09:44:16 24° ENE 09:44:16 24° ENE 09:45:32 10° E
Cosmos 1656 Rocket 3.6 09:37:54 10° NNW 09:43:38 87° ENE 09:49:19 10° SSE
ALOS 3.4 09:40:54 10° NNE 09:45:22 44° E 09:49:48 10° S
Meteor 1-27 4.4 09:46:15 44° WNW 09:46:15 44° WNW 09:51:25 10° N
Cosmos 1238 Rocket 3.9 09:40:54 10° N 09:46:26 62° E 09:50:56 10° SSE
Cosmos 1000 Rocket 4.4 09:41:32 10° S 09:47:42 87° W 09:53:59 10° N
Cosmos 1459 Rocket 3.9 09:42:38 10° N 09:48:53 89° W 09:55:13 10° S
Cosmos 2100 Rocket 3.8 09:44:18 10° N 09:50:31 80° W 09:56:38 10° S
GEOS 3 Rocket 4.1 09:48:52 10° NE 09:54:09 61° ESE 09:59:26 10° SSW
Sich 1 3.2 09:53:11 10° N 09:57:30 71° E 10:01:49 10° SSE
Cosmos 2369 Rocket 3.1 10:01:21 28° SW 10:01:21 28° SW 10:05:01 10° SSW
ATLAS 2AS CENTAUR R/B 4.3 09:53:28 10° NNW 10:00:20 35° NE 10:06:41 10° ESE
Cosmos 1400 Rocket 2.9 09:58:40 10° S 10:02:41 81° E 10:06:49 10° NNE
Cosmos 1805 Rocket 3.4 10:03:43 10° NNW 10:08:00 61° W 10:12:17 10° S
Cosmos 1943 4.0 10:08:08 28° WNW 10:08:58 29° NW 10:13:51 10° N
Cosmos 1633 2.8 10:10:36 42° WSW 10:10:36 42° WSW 10:13:51 10° SSW
Cosmos 1725 Rocket 4.2 10:05:07 10° N 10:11:25 77° E 10:17:43 10° SSE
Cosmos 2123 Rocket 4.0 10:05:52 10° S 10:12:11 88° E 10:18:30 10° N
Cosmos 1151 Rocket 4.0 10:09:02 10° SSE 10:13:11 49° E 10:17:24 10° NNE
SKYMED 2 3.5 10:09:48 10° SSE 10:14:08 89° ENE 10:18:30 10° NNW
Lacrosse 5 4.0 10:19:32 10° SW 10:19:32 10° SW 10:19:43 10° SW
Cosmos 1140 Rocket 4.4 10:17:07 26° W 10:18:21 29° WNW 10:22:54 10° N
CZ-4B R/B 3.1 10:16:23 10° N 10:19:43 36° WNW 10:20:42 30° WSW
GPS 2-05 Rocket1 3.6 10:19:50 21° S 10:19:56 21° S 10:21:49 10° ESE
Cosmos 2061 Rocket 3.9 10:15:10 10° NNW 10:21:23 71° W 10:27:31 10° S
ISS -3.9 10:21:40 30° WSW 10:23:11 79° NW 10:26:34 10° NE
SOZ 3.9 10:24:44 42° W 10:25:08 51° SW 10:27:46 10° SE
METEOR-M 4.0 10:19:56 10° N 10:25:18 81° WNW 10:30:37 10° SSW
Cosmos 921 Rocket 4.4 10:26:34 20° WSW 10:26:34 20° WSW 10:28:47 10° SSW
STARLINK-1149 3.9 10:24:14 18° NNW 10:25:58 36° NNE 10:28:38 10° ESE
Cosmos 1864 Rocket 4.4 10:21:43 10° N 10:27:52 79° W 10:34:03 10° S
USA 116 3.7 10:25:07 10° SSE 10:28:10 59° ENE 10:31:15 10° N
CZ-4B R/B 4.0 10:23:35 10° NNE 10:28:45 52° E 10:33:53 10° S
CZ-4B DEB 4.2 10:23:58 10° NNE 10:29:28 85° ESE 10:34:55 10° SSW
SL-08 R/B 4.4 10:23:56 10° N 10:30:02 74° W 10:36:04 10° S
Cosmos 1484 Rocket 3.4 10:27:54 10° N 10:31:32 35° WNW 10:35:11 10° SW
Cosmos 1802 Rocket 4.2 10:26:35 10° NNW 10:32:45 50° W 10:38:50 10° SSW
Cosmos 1328 Rocket 3.6 10:29:48 10° S 10:34:14 90° ESE 10:38:42 10° N
STARLINK-1129 4.2 10:34:28 11° NW 10:37:31 41° NNE 10:40:47 10° ESE
STARLINK-1134 4.1 10:38:26 10° NW 10:41:41 44° NNE 10:45:01 10° ESE
Cosmos 1850 Rocket 4.0 10:36:55 10° SSW 10:42:10 64° WNW 10:47:24 10° NNE
CZ-2C R/B 4.0 10:39:33 10° NNW 10:42:37 16° WNW 10:44:02 14° W
Cosmos 2016 Rocket 4.2 10:38:20 10° NNW 10:44:19 48° W 10:50:20 10° SSW
STARLINK-1135 4.0 10:41:13 10° NW 10:44:34 46° NE 10:47:54 10° ESE
STARLINK-1132 3.1 10:43:19 12° NW 10:45:57 59° NE 10:48:50 10° ESE
STARLINK-1150 3.1 10:43:29 12° NW 10:46:05 59° NE 10:48:56 10° ESE
Iridium 51 4.0 10:42:25 10° S 10:46:11 78° W 10:49:45 10° N
STARLINK-1167 3.1 10:44:23 12° NW 10:47:02 61° NE 10:49:54 10° ESE
Cosmos 1862 4.0 10:43:34 10° NNW 10:47:04 30° W 10:50:34 10° SSW
STARLINK-1141 3.9 10:44:01 10° NW 10:47:24 49° NE 10:50:46 10° ESE
STARLINK-1163 3.0 10:44:47 12° NW 10:47:26 62° NE 10:50:18 10° ESE
STARLINK-1153 3.3 10:44:57 11° NW 10:47:42 53° NE 10:50:35 10° ESE
STARLINK-1180 3.3 10:45:09 11° NW 10:47:57 54° NE 10:50:49 10° ESE
STARLINK-1177 3.0 10:45:36 12° NW 10:48:16 63° NE 10:51:07 10° ESE
STARLINK-1174 3.3 10:45:36 11° NW 10:48:23 54° NE 10:51:15 10° ESE
STARLINK-1139 3.3 10:45:49 11° NW 10:48:37 55° NE 10:51:30 10° ESE
STARLINK-1133 3.3 10:46:02 11° NW 10:48:51 55° NE 10:51:43 10° ESE
STARLINK-1151 3.3 10:46:15 11° NW 10:49:04 55° NE 10:51:56 10° ESE
STARLINK-1173 3.0 10:46:26 11° NW 10:49:09 65° NE 10:52:00 10° ESE
COSMOS 2406 4.4 10:43:50 10° S 10:49:12 47° ESE 10:54:36 10° NE
STARLINK-1160 3.2 10:46:54 10° NW 10:49:44 56° NE 10:52:37 10° ESE
STARLINK-1161 3.2 10:47:07 10° NW 10:49:58 57° NE 10:52:51 10° ESE
STARLINK-1145 3.2 10:47:20 10° NW 10:50:11 57° NE 10:53:03 10° ESE
STARLINK-1140 3.8 10:46:50 10° NW 10:50:13 52° NE 10:53:37 10° ESE
STARLINK-1172 3.2 10:47:33 10° NW 10:50:25 57° NE 10:53:18 10° ESE
STARLINK-1182 3.2 10:47:59 10° NW 10:50:52 58° NE 10:53:45 10° ESE
STARLINK-1164 3.2 10:48:12 10° NW 10:51:06 58° NE 10:53:59 10° ESE
Okean O Rocket 1.6 10:46:44 10° NNE 10:51:07 89° W 10:55:26 10° SSW
STARLINK-1168 3.2 10:48:25 10° NW 10:51:19 59° NE 10:54:12 10° ESE
STARLINK-1183 3.1 10:49:05 10° NW 10:51:59 60° NE 10:54:53 10° ESE
DELTA 2 R/B (1) 3.6 10:47:06 13° W 10:52:04 80° S 10:57:38 10° E
STARLINK-1181 3.1 10:49:19 10° NW 10:52:13 60° NE 10:55:07 10° ESE
STARLINK-1136 2.8 10:49:37 10° NW 10:52:27 70° NE 10:55:19 10° ESE
STARLINK-1196 3.1 10:49:58 10° NW 10:52:54 61° NE 10:55:48 10° ESE
STARLINK-1156 3.7 10:49:38 10° NW 10:53:04 55° NE 10:56:28 10° ESE
STARLINK-1186 3.1 10:50:25 10° NW 10:53:20 62° NE 10:56:13 10° ESE
Cosmos 1606 2.6 10:49:37 10° S 10:53:25 78° W 10:57:12 10° N
STARLINK-1185 3.1 10:50:39 10° NW 10:53:33 62° NE 10:56:27 10° ESE
STARLINK-1175 3.1 10:50:52 10° NW 10:53:47 63° NE 10:56:41 10° ESE
STARLINK-1147 3.1 10:51:06 10° NW 10:54:00 63° NE 10:56:54 10° ESE
STARLINK-1179 2.6 10:51:17 11° NW 10:54:01 79° NE 10:56:49 10° SE
STARLINK-1146 3.0 10:51:19 10° NW 10:54:14 63° NE 10:57:09 10° ESE
STARLINK-1176 2.6 10:51:43 10° NW 10:54:28 80° NE 10:57:16 10° SE
STARLINK-1152 3.0 10:51:33 10° NW 10:54:28 64° NE 10:57:23 10° ESE
STARLINK-1195 3.0 10:51:46 10° NW 10:54:41 64° NE 10:57:35 10° ESE
STARLINK-1137 3.0 10:52:00 10° NW 10:54:55 64° NE 10:57:49 10° ESE
STARLINK-1142 3.0 10:52:14 10° NW 10:55:09 65° NE 10:58:02 10° ESE
STARLINK-1127 3.0 10:52:27 10° NW 10:55:22 65° NE 10:58:16 10° ESE
STARLINK-1184 3.0 10:52:40 10° NW 10:55:36 66° NE 10:58:30 10° ESE
STARLINK-1193 3.0 10:52:54 10° NW 10:55:49 66° NE 10:58:44 10° ESE
STARLINK-1148 3.6 10:52:29 10° NW 10:55:55 58° NE 10:59:20 10° ESE
STARLINK-1194 3.0 10:53:07 10° NW 10:56:02 66° NE 10:58:56 10° ESE
TELKOM 3 3.5 10:54:59 10° NW 10:57:02 44° NNE 10:59:04 10° ESE
Cosmos 1346 Rocket 2.6 10:54:31 10° NNW 10:58:24 73° W 11:02:16 10° S
Cosmos 1633 Rocket 3.4 10:54:22 10° NNW 10:58:29 41° W 11:02:36 10° SSW
STARLINK-1158 3.5 10:55:18 10° NW 10:58:45 62° NE 11:02:10 10° ESE
Cosmos 2233 Rocket 4.0 10:53:07 10° NNW 10:59:24 72° W 11:05:40 10° S
Cosmos 1515 Rocket 3.5 10:55:13 10° S 10:59:39 79° W 11:04:05 10° N
COSMO-SKYMED 1 3.5 10:58:41 10° SSW 11:02:20 26° W 11:06:00 10° NW
Cosmos 1666 Rocket 4.4 11:02:06 10° NNW 11:05:50 28° W 11:09:32 10° SSW
Cosmos 2228 Rocket 3.5 11:01:43 10° S 11:06:05 71° E 11:10:31 10° NNE
Cosmos 1933 Rocket 3.6 11:02:07 10° N 11:06:28 90° NE 11:10:49 10° S
Cosmos 468 Rocket 4.2 11:01:26 10° NNW 11:06:33 51° WSW 11:11:36 10° S
USA 267 4.5 11:04:25 10° S 11:09:08 21° WSW 11:13:53 10° WNW
ERBS 2.3 11:08:14 10° SW 11:11:35 66° NW 11:14:56 10° NE
STARLINK-1162 3.1 11:11:17 10° NW 11:14:42 89° SSW 11:18:05 10° SE
Cosmos 2208 Rocket 4.0 11:09:54 10° NNW 11:15:10 89° WSW 11:20:20 10° SSE
Cosmos 1814 Rocket 4.3 11:10:58 10° NNW 11:16:13 77° ENE 11:21:30 10° SSE
NOSS 3-4 (A) 4.2 11:10:09 10° NNW 11:17:16 77° NE 11:25:04 10° SE
NOSS 3-4 (C) 4.2 11:10:15 10° NNW 11:17:22 76° NE 11:25:09 10° SE
